Weather History for Gunnison, CO

Change the Weather History Date:

Monday, April 30, 2012

  Actual Average Record
Temperature  
Mean Temperature 42 °F -  
Max Temperature 64 °F 56 °F 69 °F (2013)
Min Temperature 21 °F 25 °F 19 °F (2014)
Degree Days  
Heating Degree Days 22    
Moisture  
Dew Point 3 °F    
Average Humidity 27    
Maximum Humidity 64    
Minimum Humidity 4    
Precipitation  
Precipitation 0.00 in - - ()
Sea Level Pressure  
Sea Level Pressure 30.14 in    
Wind  
Wind Speed 4 mph (West)    
Max Wind Speed 21 mph    
Max Gust Speed 30 mph    
Visibility 10 miles    
Events      
Averages and records for this station are not official NWS values.
T = Trace of Precipitation, MM = Missing Value Source: NWS Daily Summary

Daily Weather History Graph

Daily Weather History Graph

Search for Another Location

Airport:

Trip Planner

Search our weather history database for the weather conditions in past years. The results will help you decide how hot, cold, wet, or windy it might be!

Date:

Astronomy

Apr. 30, 2012 Rise Set
Actual Time 6:11 AM MDT 7:59 PM MDT
Civil Twilight 5:42 AM MDT 8:27 PM MDT
Nautical Twilight 5:08 AM MDT 9:02 PM MDT
Astronomical Twilight 4:31 AM MDT 9:39 PM MDT
Moon 2:03 PM MDT (4/30) 2:32 AM MDT (4/30)
Length of Visible Light 14h 45m
Length of Day
13h 48m
Waxing Gibbous, 64% of the Moon is Illuminated
Apr 30
Waxing Gibbous
May 5
Full
May 12
Last Quarter
May 20
New
May 28
First Quarter

Hourly Weather History & Observations

Time (MDT) Temp. Windchill Dew Point Humidity Pressure Visibility Wind Dir Wind Speed Gust Speed Precip Events Conditions
12:35 AM 33.8 °F - 12.2 °F 41% 30.20 in 10.0 mi Calm Calm - N/A   Unknown
12:55 AM 33.8 °F - 12.2 °F 41% 30.20 in 10.0 mi Calm Calm - N/A   Clear
1:15 AM 33.8 °F 30.8 °F 14.0 °F 44% 30.19 in 10.0 mi NNW 3.5 mph - N/A   Clear
1:35 AM 32.0 °F 28.7 °F 15.8 °F 51% 30.19 in 10.0 mi North 3.5 mph - N/A   Clear
1:55 AM 28.4 °F - 10.4 °F 47% 30.20 in 10.0 mi Calm Calm - N/A   Clear
2:35 AM 30.2 °F - 14.0 °F 51% 30.19 in 10.0 mi Calm Calm - N/A   Clear
3:15 AM 26.6 °F - 12.2 °F 55% 30.19 in 10.0 mi Calm Calm - N/A   Clear
3:35 AM 26.6 °F - 12.2 °F 55% 30.20 in 10.0 mi Calm Calm - N/A   Clear
3:55 AM 24.8 °F - 12.2 °F 59% 30.20 in 10.0 mi Calm Calm - N/A   Clear
4:15 AM 24.8 °F - 12.2 °F 59% 30.20 in 10.0 mi Calm Calm - N/A   Clear
4:35 AM 26.6 °F - 15.8 °F 64% 30.20 in 10.0 mi Calm Calm - N/A   Clear
4:55 AM 24.8 °F 20.5 °F 10.4 °F 54% 30.20 in 10.0 mi NNE 3.5 mph - N/A   Clear
5:15 AM 26.6 °F - 10.4 °F 51% 30.21 in 10.0 mi Calm Calm - N/A   Clear
5:55 AM 23.0 °F 18.4 °F 12.2 °F 63% 30.21 in 10.0 mi NNE 3.5 mph - N/A   Clear
6:15 AM 23.0 °F 18.4 °F 10.4 °F 59% 30.22 in 10.0 mi NNE 3.5 mph - N/A   Clear
6:35 AM 23.0 °F 17.0 °F 12.2 °F 63% 30.23 in 10.0 mi North 4.6 mph - N/A   Clear
6:55 AM 21.2 °F - 10.4 °F 63% 30.23 in 10.0 mi Calm Calm - N/A   Clear
7:15 AM 24.8 °F - 12.2 °F 59% 30.25 in 10.0 mi Calm Calm - N/A   Clear
7:35 AM 26.6 °F - 15.8 °F 64% 30.25 in 10.0 mi Calm Calm - N/A   Clear
7:55 AM 28.4 °F - 14.0 °F 55% 30.25 in 10.0 mi Calm Calm - N/A   Clear
8:15 AM 30.2 °F - 12.2 °F 47% 30.25 in 10.0 mi Calm Calm - N/A   Clear
8:35 AM 33.8 °F - 14.0 °F 44% 30.25 in 10.0 mi Calm Calm - N/A   Clear
8:55 AM 35.6 °F - 15.8 °F 44% 30.24 in 10.0 mi Calm Calm - N/A   Clear
9:15 AM 37.4 °F - 14.0 °F 38% 30.23 in 10.0 mi Calm Calm - N/A   Clear
9:35 AM 41.0 °F - 15.8 °F 36% 30.22 in 10.0 mi Calm Calm - N/A   Clear
9:55 AM 42.8 °F - 15.8 °F 34% 30.22 in 10.0 mi Calm Calm - N/A   Clear
10:15 AM 46.4 °F - 5.0 °F 18% 30.21 in 10.0 mi Calm Calm - N/A   Clear
10:35 AM 46.4 °F 45.2 °F -2.2 °F 13% 30.20 in 10.0 mi SW 3.5 mph - N/A   Clear
10:55 AM 48.2 °F - 6.8 °F 19% 30.19 in 10.0 mi Calm Calm - N/A   Clear
11:15 AM 51.8 °F - 6.8 °F 16% 30.18 in 10.0 mi Calm Calm - N/A   Clear
11:35 AM 53.6 °F - 8.6 °F 16% 30.17 in 10.0 mi Calm Calm - N/A   Clear
11:55 AM 57.2 °F - 8.6 °F 14% 30.15 in 10.0 mi SW 12.7 mph 21.9 mph N/A   Clear
12:15 PM 57.2 °F - 12.2 °F 17% 30.14 in 10.0 mi South 10.4 mph 18.4 mph N/A   Clear
12:35 PM 60.8 °F - 1.4 °F 9% 30.13 in 10.0 mi SSW 15.0 mph 21.9 mph N/A   Clear
12:55 PM 60.8 °F - -2.2 °F 8% 30.12 in 10.0 mi WSW 12.7 mph 23.0 mph N/A   Clear
1:15 PM 62.6 °F - -20.2 °F 4% 30.11 in 10.0 mi West 11.5 mph 18.4 mph N/A   Clear
1:35 PM 62.6 °F - 3.2 °F 9% 30.11 in 10.0 mi West 17.3 mph 25.3 mph N/A   Clear
1:55 PM 62.6 °F - 3.2 °F 9% 30.10 in 10.0 mi SSW 12.7 mph 25.3 mph N/A   Clear
2:15 PM 62.6 °F - -7.6 °F 6% 30.10 in 10.0 mi West 12.7 mph 23.0 mph N/A   Clear
2:35 PM 62.6 °F - -11.2 °F 5% 30.09 in 10.0 mi SW 17.3 mph 23.0 mph N/A   Clear
2:55 PM 64.4 °F - -9.4 °F 5% 30.09 in 10.0 mi SW 16.1 mph 23.0 mph N/A   Clear
3:15 PM 64.4 °F - -13.0 °F 4% 30.08 in 10.0 mi WSW 15.0 mph 27.6 mph N/A   Clear
3:35 PM 64.4 °F - -14.8 °F 4% 30.07 in 10.0 mi SW 12.7 mph 23.0 mph N/A   Clear
3:55 PM 62.6 °F - -11.2 °F 5% 30.06 in 10.0 mi SSW 15.0 mph 25.3 mph N/A   Clear
4:15 PM 64.4 °F - -13.0 °F 4% 30.06 in 10.0 mi West 11.5 mph 25.3 mph N/A   Clear
4:35 PM 64.4 °F - -11.2 °F 5% 30.05 in 10.0 mi West 18.4 mph 26.5 mph N/A   Clear
4:55 PM 64.4 °F - -9.4 °F 5% 30.05 in 10.0 mi West 18.4 mph 28.8 mph N/A   Clear
5:15 PM 64.4 °F - -11.2 °F 5% 30.05 in 10.0 mi West 20.7 mph 29.9 mph N/A   Clear
5:35 PM 62.6 °F - -11.2 °F 5% 30.04 in 10.0 mi West 18.4 mph 29.9 mph N/A   Clear
5:55 PM 62.6 °F - -7.6 °F 6% 30.05 in 10.0 mi West 8.1 mph 21.9 mph N/A   Clear
6:15 PM 62.6 °F - -7.6 °F 6% 30.04 in 10.0 mi West 11.5 mph 18.4 mph N/A   Clear
6:35 PM 62.6 °F - -7.6 °F 6% 30.04 in 10.0 mi West 17.3 mph 24.2 mph N/A   Clear
7:15 PM 60.8 °F - -9.4 °F 6% 30.04 in 10.0 mi West 11.5 mph 18.4 mph N/A   Clear
7:35 PM 60.8 °F - -9.4 °F 6% 30.04 in 10.0 mi West 9.2 mph 16.1 mph N/A   Clear
7:55 PM 57.2 °F - -7.6 °F 7% 30.05 in 10.0 mi WSW 12.7 mph 16.1 mph N/A   Clear
8:15 PM 57.2 °F - -9.4 °F 6% 30.05 in 10.0 mi West 8.1 mph - N/A   Clear
8:35 PM 55.4 °F - -11.2 °F 6% 30.05 in 10.0 mi West 4.6 mph - N/A   Clear
8:55 PM 55.4 °F - -9.4 °F 7% 30.06 in 10.0 mi WSW 4.6 mph - N/A   Clear
9:15 PM 53.6 °F - -11.2 °F 7% 30.06 in 10.0 mi Calm Calm - N/A   Clear
9:35 PM 51.8 °F - -9.4 °F 8% 30.06 in 10.0 mi WNW 3.5 mph - N/A   Clear
10:15 PM 46.4 °F - 3.2 °F 17% 30.07 in 10.0 mi Calm Calm - N/A   Clear
10:35 PM 46.4 °F 41.9 °F 3.2 °F 17% 30.07 in 10.0 mi NNW 9.2 mph - N/A   Clear
11:15 PM 42.8 °F 39.3 °F 12.2 °F 29% 30.07 in 10.0 mi North 5.8 mph - N/A   Clear
11:35 PM 41.0 °F - 17.6 °F 39% 30.06 in 10.0 mi Calm Calm - N/A   Clear